335  
SXUS52 KCHS 170026  
OSOCHS  
 
MARINE OBSERVATIONS  
NATIONAL WEATHER SERVICE CHARLESTON SC  
700 PM EST WED JAN 16 2019  
   
..DOWNTOWN CHARLESTON AND HARBOR
 
 
 
CITY SKY/WX TMP DP RH WIND PRES REMARKS  
WATERFRONT PRK N/A 51 44 77 VRB2 30.08R  
   
..LAKE MOULTRIE
 
 
 
CITY SKY/WX TMP DP RH WIND PRES REMARKS  
PINOPOLIS N/A 48 43 81 CALM 30.14R  
   
..LAKE AND SUPPLEMENTAL COASTAL OBSERVATIONS
 
 
 
STATION/POSITION TIME TEMP WIND PRES WAVE SWELL  
AIR SEA DIR/SP/G HT/PER HT/PER/DIR  
(UTC) (F) (DEG/KT/KT) (MB) (FT/S) (FT/S/D)  
FORT PULASKI 2354 51 54 210/ 3/ 4 1024.1R  
SAPELO ISLAND 0000 44 150/ 2 1024.0  
WINYAH BAY 2345 47 240/ 2 1023.0R  
LAKE MURRAY 2320 50 280/ 2/ 3 1022.0  
ACE BASIN NERRS 2345 47 CALM 1024.0R  
 
   
..C-MAN AND BUOY OBSERVATIONS
 
 
 
STATION/POSITION TIME TEMP WIND PRES WAVE SWELL  
AIR SEA DIR/SP/G HT/PER HT/PER/DIR  
(UTC) (F) (DEG/KT/KT) (MB) (FT/S) (FT/S/D)  
BUOY 41004 0010 63 280/ 4/ 8 1024.2  
BUOY 41008 2350 54 58 200/ 4/ 6 1024.0R 2/12 2/ 60/12  
FOLLY BEACH CMAN 0000 50 240/ 5/ 6 1024.2R  
PRITCHARDS ISLAN NOT AVBL  
CAPERS NS BUOY 0008 53 54 250/ 10/ 12 1024.2R  
FRIPP NS BUOY 0008 53 230/ 6/ 10 1023.3R  
5E ST. MARYS GA 0000 57 N/A 2/12 2/ 80/12  
 
 
STATION/POSITION TIME TEMP WIND PRES WAVE SWELL  
AIR SEA DIR/SP/G HT/PER HT/PER/DIR  
(UTC) (F) (DEG/KT/KT) (MB) (FT/S) (FT/S/D)  
FRYING PAN BUOY 0010 54 68 310/ 6/ 12 1023.8  
BUOY 41025 NOT AVBL  
CAPE LOOKOUT NC 0000 240/ 6/ 7 1023.3R  
BUOY 41002 0010 1022.1  
BUOY 41010 0010 67 76 20/ 8/ 12 1022.7  
ST AUGUSTINE FL 0000 53 59 330/ 2/ 3 1024.2R  
 

 
 
 
CLICK HERE TO GO TO PREVIOUS BULLETINS.

The Nexlab SC Page
The Nexlab GA Page Main Text Page